TimeCDT,TemperatureF,Dew PointF,Humidity,Sea Level PressureIn,VisibilityMPH,Wind Direction,Wind SpeedMPH,Gust SpeedMPH,PrecipitationIn,Events,Conditions,WindDirDegrees,DateUTC
12:56 AM,72.0,66.9,84,30.02,6.0,Calm,Calm,-,N/A,,Haze,0,2012-10-06 05:56:00
1:40 AM,71.6,66.2,83,30.02,1.8,Calm,Calm,-,N/A,,Haze,0,2012-10-06 06:40:00
1:44 AM,71.6,66.2,83,30.02,2.0,Calm,Calm,-,N/A,,Haze,0,2012-10-06 06:44:00
1:56 AM,70.0,66.0,87,30.01,3.0,Calm,Calm,-,N/A,,Scattered Clouds,0,2012-10-06 06:56:00
2:04 AM,69.8,66.2,88,30.02,2.0,Calm,Calm,-,N/A,,Partly Cloudy,0,2012-10-06 07:04:00
2:15 AM,69.8,64.4,83,30.01,2.5,Calm,Calm,-,N/A,,Haze,0,2012-10-06 07:15:00
2:24 AM,69.8,64.4,83,30.01,2.5,Calm,Calm,-,N/A,,Haze,0,2012-10-06 07:24:00
2:49 AM,69.8,64.4,83,30.00,5.0,Calm,Calm,-,N/A,,Overcast,0,2012-10-06 07:49:00
2:56 AM,69.1,64.0,84,29.99,5.0,Calm,Calm,-,N/A,,Haze,0,2012-10-06 07:56:00
3:00 AM,69.8,64.4,83,30.00,1.8,Calm,Calm,-,N/A,,Overcast,0,2012-10-06 08:00:00
3:03 AM,69.8,64.4,83,30.00,1.0,NW,3.5,-,N/A,,Overcast,310,2012-10-06 08:03:00
3:08 AM,69.8,64.4,83,30.00,0.2,NW,3.5,-,N/A,Fog,Fog,310,2012-10-06 08:08:00
3:56 AM,70.0,66.0,87,29.98,0.2,Calm,Calm,-,0.01,Fog,Fog,0,2012-10-06 08:56:00
4:56 AM,70.0,66.0,87,29.99,0.2,Calm,Calm,-,N/A,Fog,Fog,0,2012-10-06 09:56:00
5:32 AM,69.8,66.2,88,30.01,0.5,Calm,Calm,-,N/A,Fog,Fog,0,2012-10-06 10:32:00
5:38 AM,69.8,66.2,88,30.01,1.2,Calm,Calm,-,N/A,,Overcast,0,2012-10-06 10:38:00
5:51 AM,69.8,66.2,88,30.01,2.0,NNW,3.5,-,N/A,,Overcast,340,2012-10-06 10:51:00
5:56 AM,70.0,66.9,90,30.00,3.0,NNW,4.6,-,N/A,,Overcast,330,2012-10-06 10:56:00
6:08 AM,71.6,66.2,83,30.01,1.8,NNW,4.6,-,N/A,,Overcast,330,2012-10-06 11:08:00
6:12 AM,71.6,66.2,83,30.01,1.0,NNW,4.6,-,N/A,,Overcast,330,2012-10-06 11:12:00
6:25 AM,71.6,66.2,83,30.01,1.5,NNW,6.9,-,N/A,,Overcast,340,2012-10-06 11:25:00
6:32 AM,71.6,68.0,88,30.02,3.0,North,5.8,-,N/A,,Mostly Cloudy,350,2012-10-06 11:32:00
6:42 AM,71.6,68.0,88,30.01,3.0,NNW,5.8,-,N/A,,Scattered Clouds,340,2012-10-06 11:42:00
6:44 AM,71.6,68.0,88,30.01,2.0,NNW,5.8,-,N/A,,Mostly Cloudy,330,2012-10-06 11:44:00
6:46 AM,71.6,68.0,88,30.01,1.2,NNW,5.8,-,N/A,,Mostly Cloudy,340,2012-10-06 11:46:00
6:50 AM,71.6,68.0,88,30.01,0.2,NNW,5.8,-,N/A,Fog,Fog,340,2012-10-06 11:50:00
6:56 AM,71.1,68.0,90,30.00,0.2,NNW,5.8,-,N/A,Fog,Fog,340,2012-10-06 11:56:00
7:56 AM,73.0,69.1,87,30.01,0.2,NNW,3.5,-,N/A,Fog,Fog,340,2012-10-06 12:56:00
8:43 AM,73.4,69.8,88,30.02,0.8,NW,4.6,-,N/A,,Overcast,320,2012-10-06 13:43:00
8:49 AM,73.4,69.8,88,30.03,1.2,NNW,5.8,-,N/A,,Overcast,340,2012-10-06 13:49:00
8:54 AM,75.2,71.6,89,30.03,2.0,North,6.9,-,N/A,,Overcast,350,2012-10-06 13:54:00
8:56 AM,75.0,71.1,87,30.02,2.5,North,6.9,-,N/A,,Overcast,360,2012-10-06 13:56:00
9:03 AM,73.4,71.6,94,30.02,4.0,North,4.6,-,N/A,,Overcast,350,2012-10-06 14:03:00
9:16 AM,73.4,71.6,94,30.03,4.0,Calm,Calm,-,N/A,,Overcast,0,2012-10-06 14:16:00
9:33 AM,75.2,71.6,89,30.03,7.0,North,5.8,-,N/A,,Overcast,350,2012-10-06 14:33:00
9:52 AM,78.8,69.8,74,30.03,9.0,NW,4.6,-,N/A,,Mostly Cloudy,320,2012-10-06 14:52:00
9:56 AM,79.0,70.0,74,30.02,10.0,NW,3.5,-,N/A,,Mostly Cloudy,310,2012-10-06 14:56:00
10:06 AM,80.6,69.8,70,30.03,10.0,North,3.5,-,N/A,,Scattered Clouds,360,2012-10-06 15:06:00
10:56 AM,84.0,64.9,53,30.01,10.0,ENE,4.6,-,N/A,,Scattered Clouds,60,2012-10-06 15:56:00
11:56 AM,86.0,62.1,44,29.99,10.0,North,6.9,-,N/A,,Partly Cloudy,360,2012-10-06 16:56:00
12:56 PM,87.1,61.0,41,29.97,10.0,North,5.8,-,N/A,,Clear,10,2012-10-06 17:56:00
1:56 PM,88.0,59.0,37,29.94,10.0,North,4.6,-,N/A,,Clear,10,2012-10-06 18:56:00
2:56 PM,88.0,59.0,37,29.91,10.0,Variable,4.6,-,N/A,,Clear,0,2012-10-06 19:56:00
3:56 PM,88.0,57.9,36,29.91,10.0,NW,3.5,-,N/A,,Clear,320,2012-10-06 20:56:00
4:56 PM,87.1,60.1,40,29.91,10.0,North,6.9,-,N/A,,Clear,10,2012-10-06 21:56:00
5:56 PM,84.0,63.0,49,29.92,10.0,Calm,Calm,-,N/A,,Clear,0,2012-10-06 22:56:00
6:56 PM,77.0,64.9,66,29.94,10.0,Calm,Calm,-,N/A,,Clear,0,2012-10-06 23:56:00
7:56 PM,75.0,64.9,71,29.96,10.0,NNW,3.5,-,N/A,,Clear,340,2012-10-07 00:56:00
8:56 PM,73.9,64.9,73,29.98,10.0,North,5.8,-,N/A,,Clear,360,2012-10-07 01:56:00
9:56 PM,73.0,64.9,76,29.99,9.0,North,8.1,-,N/A,,Clear,10,2012-10-07 02:56:00
10:56 PM,72.0,64.0,76,29.99,9.0,NNE,6.9,-,N/A,,Clear,20,2012-10-07 03:56:00
11:56 PM,70.0,64.0,81,29.99,8.0,North,8.1,-,N/A,,Clear,10,2012-10-07 04:56:00